www.pogodaiklimat.ru

Погода и климат >> Архив погоды >> Россия >> Якутия >> Усть-Чаркы


ПОГОДА в Усть-Чарках

  • Прогноз погоды в Усть-Чарках
  • Монитор погоды в Усть-Чарках
  • Климат города

АРХИВ ПОГОДЫ в Усть-Чарках

Время (UTC), дата Ветер
(напр.,м/с)
 
Видим.   Явления Облачность Т
(С)
Тd
(С)
f
(%)
Тe
(С)
Тes
(С)
Комфортность P
(гПа)
Po
(гПа)
Тmin
(С)
Tmax
(С)
R
(мм)
R24
(мм)
S
(см)
15 17.06 штиль 0 50 км 3/0
[Ci fib]
+6.1 +3.0 80 +5 +5 1006.2 973.2
18 17.06 штиль 0 50 км ясно +4.1 +3.4 95 +3 +3 1006.7 973.5
21 17.06 ЮВ 1 50 км ясно +15.0 +5.6 53 +16 +19 1005.7 973.8 +3.8
00 18.06 В 1 50 км 3/0
[Ci sp]
+22.6 +4.9 32 +23 +33 комфорт 1005.7 974.5
03 18.06 СЗ 6 50 км 8/5 600 м
[Cb cap Ac lent]
+16.8 +3.1 40 +16 +17 1008.7 977.1
06 18.06 СЗ 4 50 км 9/8 600 м
[Cb cap Ac lent]
+14.9 +5.7 54 +14 +15 1010.5 978.4
09 18.06 СЗ 3 50 км 9/9 600 м
[Cb calv]
+15.0 +5.6 53 +14 +15 1011.1 979.0 +24.0
12 18.06 СЗ 3 50 км 10/5 1000 м
[Sc diur, vesp Ac trans Cc]
+11.1 +4.5 64 +9 +9 1012.7 980.1
15 18.06 СЗ 2 50 км 6/6 1000 м
[Sc diur, vesp]
+7.6 +4.4 80 +6 +6 1014.1 981.1
18 18.06 СЗ 2 50 км 10/6 1000 м
[Sc Ac trans Ci fib]
+6.7 +5.1 90 +4 +4 1015.0 981.8
21 18.06 СЗ 1 50 км 9/9 1000 м
[Sc]
+7.2 +6.1 93 +6 +7 1014.4 981.2 +6.5
00 19.06 штиль 0 50 км 9/9 1000 м
[Sc]
+9.3 +5.3 76 +9 +10 1012.1 979.3
03 19.06 СВ 1 50 км {ливн. осадки} 3/1 1000 м
[Cu hum Ac trans]
+14.8 +8.5 66 +15 +26 опасность
простуды
1007.8 975.8
06 19.06 З 3 50 км {ливн. осадки} 4/3 1000 м
[Cu med, cong Ac lent Ci fib]
+19.6 +9.9 53 +21 +25 комфорт 1003.8 972.4
09 19.06 СЗ 4 50 км 10/1 1000 м
[Sc diur, vesp Ci sp]
+17.9 +8.9 56 +18 +19 1004.0 972.4 +20.1 0.8
12 19.06 С 1 50 км 10/3 1000 м
[Sc Ac trans Ci sp]
+15.0 +8.0 63 +16 +16 1005.0 973.1
15 19.06 штиль 0 50 км 10/10 1000 м
[Sc]
+10.1 +7.6 84 +9 +9 1006.3 973.8
18 19.06 штиль 0 50 км 8/8 1000 м
[Sc]
+6.8 +6.8 100 +6 +6 1007.0 974.1
21 19.06 СЗ 1 50 км 10/5 1000 м
[Sc Ac lent Ci fib]
+11.7 +8.9 83 +12 +12 1006.9 974.5 +6.1
00 20.06 СЗ 2 50 км 10/3 1000 м
[Cu med, cong Ac lent Ci fib]
+15.8 +5.9 52 +16 +19 1005.5 973.7
03 20.06 СЗ 3 50 км 10/3 1000 м
[Cu hum Ac trans Cs]
+17.7 +0.7 32 +18 +21 1004.1 972.5
06 20.06 СЗ 3 50 км 10/3 1000 м
[Cu hum Ac cuf Cs]
+19.0 +0.9 30 +19 +22 1002.2 970.8
09 20.06 З 1 50 км 10/8 1000 м
[Cu Sc Ac lent Ci fib]
+18.8 +0.6 29 +20 +20 1001.3 969.9 +20.0
12 20.06 З 2 50 км 10/10 600 м
[Cb cap]
+14.3 +2.3 44 +14 +14 1001.8 969.9
15 20.06 штиль 0 20 км слабый ливневой дождь 10/10 600 м
[Cb cap]
+10.1 +8.5 90 +9 +9 1003.0 970.6
18 20.06 штиль 0 50 км {ливн. осадки} 10/8 600 м
[Cb cap Ac trans Ci fib]
+6.8 +6.4 97 +6 +6 1004.9 972.0
21 20.06 СЗ 2 50 км в посл. час ливневой дождь 3/0
[Ac trans]
+11.1 +3.9 61 +10 +13 1005.9 973.5 +6.5 2
00 21.06 С 2 50 км {ливн. осадки} 1/1 1000 м
[Cu hum]
+15.2 +4.2 48 +15 +23 1006.8 974.8
03 21.06 С 3 50 км 3/3 1000 м
[Cu hum]
+17.2 +2.2 36 +17 +24 1006.6 974.8
06 21.06 С 3 50 км 4/4 1000 м
[Cu hum]
+17.7 +1.7 34 +18 +22 1006.3 974.6
09 21.06 С 3 50 км 3/3 1000 м
[Cu hum]
+18.7 +1.8 32 +19 +21 1005.6 974.1 +20.8
12 21.06 штиль 0 50 км 4/0
[Ci fib]
+16.4 +1.5 37 +16 +17 1005.2 973.4
15 21.06 штиль 0 50 км 8/0
[Ci fib]
+3.1 +1.6 90 +2 +2 1006.3 973.0
18 21.06 штиль 0 50 км 10/0
[Ci sp]
+2.6 +1.8 94 +1 +2 1006.4 972.9
21 21.06 ЮВ 1 50 км 10/4 1000 м
[Sc Ac trans Ci fib]
+7.8 +3.6 75 +7 +8 1005.1 972.4 +1.8
00 22.06 ЮВ 1 50 км в посл. час дождь 10/6 1000 м
[Sc As op]
+8.6 +6.2 85 +8 +9 1005.1 972.5
03 22.06 штиль 0 50 км {дождь} 10/8 1000 м
[Sc Ac lent Ci fib]
+11.9 +6.7 70 +11 +13 1004.9 972.6
06 22.06 В 1 50 км {дождь} 9/5 1000 м
[Sc Ac trans]
+18.0 +7.3 50 +19 +22 1004.0 972.4
09 22.06 ЮВ 1 50 км ясно +21.1 +7.1 40 +22 +25 комфорт 1003.2 971.9 +22.0 0.8
12 22.06 штиль 0 50 км 3/0
[Ci fib]
+19.3 +6.8 44 +20 +20 1002.7 971.3
15 22.06 штиль 0 50 км 10/0
[Cs]
+8.4 +7.1 92 +7 +7 1003.8 971.3
18 22.06 штиль 0 50 км 10/0
[Cs]
+6.7 +5.8 94 +6 +6 1004.2 971.4
21 22.06 ЮВ 1 50 км 10/0
[Ac trans Cs]
+13.1 +8.5 74 +13 +16 1002.3 970.2 +6.3 0.8
00 23.06 ЮВ 1 50 км 10/0
[Ac und]
+17.6 +6.3 47 +19 +22 1000.1 968.6
03 23.06 ЮВ 1 20 км слабый дождь 10/3 1000 м
[Sc As op]
+15.9 +12.8 82 +17 +19 999.7 968.2
06 23.06 ЮВ 1 50 км {дождь} 10/3 1000 м
[Sc Ac trans Ci sp]
+22.9 +12.6 52 +26 +29 жарко 996.1 965.4
09 23.06 ЮВ 3 50 км 10/0
[Ac trans Ci sp]
+27.9 +13.4 41 +30 +31 жарко 993.1 962.9 +29.0 0.3
12 23.06 С 5 50 км 10/6 600 м
[Cb calv Ac trans Ci sp]
+14.2 +11.7 85 +12 +12 994.2 963.6
15 23.06 ЮВ 1 50 км {гроза, ливн. осадки} 10/6 600 м
[Cb cap Ac trans Ci sp]
+16.1 +14.0 87 +17 +17 996.0 964.6
18 23.06 ЮВ 2 10 км ливневой дождь {гроза} 10/10 600 м
[Cb cap]
+15.1 +14.0 93 +15 +15 997.7 966.1
21 23.06 СЗ 3 50 км {ливн. осадки} 10/10 300 м
[Cb cap]
+14.0 +13.1 94 +13 +13 998.7 967.0 +13.9 10
00 24.06 СЗ 5 20 км слабый ливневой дождь 10/10 300 м
[Cb cap]
+4.3 +3.1 92 -1 -1 1005.3 972.1 +4.2
03 24.06 СЗ 4 20 км {ливн. осадки} 10/10 300 м
[Cb cap]
+6.8 +3.5 79 +3 +3 1008.9 975.9
06 24.06 СЗ 5 50 км {ливн. осадки} 10/10 300 м
[Cb cap]
+6.7 +1.5 69 +3 +3 1012.0 978.9
09 24.06 СЗ 4 50 км 9/9 300 м
[St]
+8.9 +3.3 68 +6 +6 1012.7 979.9 +14.0 12
12 24.06 СЗ 2 50 км 9/9 300 м
[St]
+8.4 +2.7 67 +7 +7 1014.1 981.1

 

Местоположение метеостанции Усть-Чаркы (Якутия, Россия): широта 66.80 долгота 136.60 высота над уровнем моря 274 м.

В архиве по умолчанию представлена погода в Усть-Чарках за последнюю неделю. Архивные данные за месяц целиком и за предыдущие месяцы, начиная с января 2011 года, Вы можете получить, выбрав интересующий диапазон дат из раскрывающегося списка и нажав кнопку "Ввод!".

Внимание! Время в таблицах - всемирное. Для получения местного времени необходимо прибавить поправку, которая в Усть-Чарках равна 10 ч.

Смотрите также архив погоды в соседних городах и на ближайших метеорологических станциях:

Погода в Батагае (Якутия, Россия) (128 км)
Погода в Верхоянске (Якутия, Россия) (162 км)
Погода в Иэме (Якутия, Россия) (171 км)
Погода в Екюччю (Якутия, Россия) (219 км)
Погода в Батагай-Алыте (Якутия, Россия) (288 км)
Погода в Усть-Моме (Якутия, Россия) (294 км)
Погода в Депутатском (Якутия, Россия) (316 км)
Погода в Томпо (Якутия, Россия) (319 км)
Погода в Себян-Кюеле (Якутия, Россия) (341 км)
Погода в Усть-Куйге (Якутия, Россия) (358 км)

Пояснения к столбцам:

Ветер - указаны скорость ветра в м/с - средняя за 10 мин, порывы в срок и между сроками (в фигурных скобках) и направление, откуда дует ветер: С - северный, СВ - северо-восточный, В - восточный, ЮВ - юго-восточный, Ю - южный, ЮЗ - юго-западный, З - западный, СЗ - северо-западный.
Видимость - горизонтальная дальность видимости в метрах или километрах. При видимости от 1 до 10 км при отсутствии осадков обычно наблюдается дымка, при ухудшении видимости до 1 км и менее - туман. В сухую погоду видимость может ухудшаться дымом, пылью или мглою.
Явления - указаны атмосферные явления, наблюдавшиеся в срок или в последний час перед сроком; фигурными скобками обозначены явления, наблюдавшиеся между сроками (за 1-3 часа до срока); квадратными скобками обозначены град или гололедные отложения с указанием их диаметра в мм.
Облачность - указаны через наклонную черту общая и нижняя облачность в баллах и высота нижней границы облаков в метрах; квадратными скобками обозначены формы облаков: Ci - перистые, Cs - перисто-слоистые, Cc - перисто-кучевые, Ac - высококучевые, As - высокослоистые, Sc - слоисто-кучевые, Ns - слоисто-дождевые, Cu - кучевые, Cb - кучево-дождевые. Подробнее классификацию облаков см. в Атласе облаков (PDF).
T - Температура воздуха - температура, измеренная на высоте 2 м над землей.
Td - Температура точки росы - температура, при понижении до которой содержащийся в воздухе водяной пар достигнет насыщения.
f - Относительная влажность воздуха - влажноcть воздуха, измеренная на высоте 2 м над землей.
Te - Эффективная температура - температура, которую ощущает одетый по сезону человек в тени. Характеристика душности погоды. При расчете учитывается влияние влажности воздуха и скорости ветра на теплоощущения человека.
Tes - Эффективная температура на солнце - температура, которую ощущает человек, с поправкой на солнечный нагрев. Характеристика знойности погоды. Зависит от высоты солнца над горизонтом, облачности и скорости ветра. Ночью, в пасмурную погоду, а также при ветре 12 м/с и более поправка равна нулю.
P - Атмосферное давление - приведенное к уровню моря атмосферное давление.
Po - Атмосферное давление - измеренное на уровне метеостанции атмосферное давление.
Tmin - Минимальная температура - минимум температуры воздуха на высоте 2 м над землей.
Tmax - Максимальная температура - максимум температуры воздуха на высоте 2 м над землей.
R - Количество осадков - Количество выпавших осадков за период времени, мм. При наведении курсора мыши на число - период времени, за который выпало указанное количество осадков.
R24 - Количество осадков - Количество выпавших осадков за 24 часа, мм.
S - Снежный покров - Высота снежного покрова, см. При наведении курсора мыши на число - состояние снежного покрова и степень покрытия местности в баллах.